Regional Weather Roundup
Issued by NWS Little Rock, AR

Home | Current Version | Previous Version | Text Only | Print | Product List | Glossary Off
Versions: 1 2 3 4 5 6 7 8 9 10 11 12 13 14 15 16 17 18 19 20 21 22 23 24 25 26 27 28 29 30 31

000
ASUS44 KLZK 100905
RWRLZK

WEATHER ROUNDUP FOR ARKANSAS
NATIONAL WEATHER SERVICE LITTLE ROCK AR
300 AM CST SAT DEC 10 2016

NOTE: "FAIR" INDICATES FEW OR NO CLOUDS BELOW 12,000 FEET WITH NO
SIGNIFICANT WEATHER AND/OR OBSTRUCTIONS TO VISIBILITY.

ARZ001-003-010-029-101000-
NORTHWEST ARKANSAS

CITY           SKY/WX    TMP DP  RH WIND       PRES   REMARKS
FAYETTEVILLE   CLOUDY    33  16  49 CALM      30.48S
FORT SMITH     CLOUDY    34  21  59 NE8       30.53R WCI  27
HARRISON       CLOUDY    28  18  66 CALM      30.49S
BENTONVILLE    CLOUDY    34  14  44 CALM      30.48S
ROGERS         CLOUDY    33  16  49 SE5       30.48S WCI  29
SILOAM SPGS    CLOUDY    34  16  47 CALM      30.48R
HIGHFILL       CLOUDY    33  17  51 S5        30.48R WCI  29
$$

ARZ004-005-016-101000-
NORTH CENTRAL ARKANSAS

CITY           SKY/WX    TMP DP  RH WIND       PRES   REMARKS
BATESVILLE     CLEAR     21  16  79 CALM      30.59S
FLIPPIN        CLEAR     23  16  74 CALM      30.50F
MTN HOME       CLEAR     23  15  71 S5        30.51F WCI  17
$$

ARZ040-041-101000-
WEST CENTRAL ARKANSAS

CITY           SKY/WX    TMP DP  RH WIND       PRES   REMARKS
MENA           CLOUDY    37  23  56 CALM      30.50S
MOUNT IDA      CLOUDY    34  22  61 CALM      30.50F
$$

ARZ009-017-025-026-028-101000-
NORTHEAST ARKANSAS

CITY           SKY/WX    TMP DP  RH WIND       PRES   REMARKS
CORNING        FAIR      25  23  93 CALM      30.60S
JONESBORO      CLEAR     22  20  92 CALM      30.60R
NEWPORT        CLEAR     23  21  92 NW3       30.61R
WALNUT RIDGE   CLEAR     25  19  80 CALM      30.58S
BLYTHEVILLE    CLEAR     24  20  84 CALM      30.61R
$$

ARZ022-023-033-042-044-101000-
CENTRAL ARKANSAS

CITY           SKY/WX    TMP DP  RH WIND       PRES   REMARKS
LITTLE ROCK    CLOUDY    23  22  96 CALM      30.59F
N LITTLE ROCK    N/A     26  22  83 CALM      30.61S
JACKSONVILLE   PTCLDY    20  17  88 CALM      30.57S
SEARCY         CLEAR     19  18  95 CALM      30.62R
HOT SPRINGS    CLOUDY    33  22  63 E6        30.55F WCI  28
RUSSELLVILLE   CLOUDY    30  21  69 CALM      30.56R
CLINTON        FAIR      19  18  93 CALM      30.58F
$$

ARZ036-101000-
EAST ARKANSAS

CITY           SKY/WX    TMP DP  RH WIND       PRES   REMARKS
WEST MEMPHIS   CLEAR     23  20  88 CALM      30.58S
$$

ARZ050-053-066-070-073-101000-
SOUTHWEST ARKANSAS

CITY           SKY/WX    TMP DP  RH WIND       PRES   REMARKS
ARKADELPHIA    CLOUDY    33  25  72 CALM      30.58S
CAMDEN         CLOUDY    32  23  69 CALM      30.57F
TEXARKANA      CLOUDY    36  25  64 SE3       30.55R
EL DORADO      CLOUDY    32  26  78 NE5       30.55F WCI  27
DE QUEEN       CLOUDY    37  25  61 E5        30.52F
$$

ARZ056-057-069-101000-
SOUTHEAST ARKANSAS

CITY           SKY/WX    TMP DP  RH WIND       PRES   REMARKS
PINE BLUFF     CLOUDY    25  22  88 CALM      30.59S
STUTTGART      CLEAR     28  18  64 SE3       30.59S
MONTICELLO     CLEAR     25  22  88 CALM      30.58S

$$






USA.gov is the U.S. government's official web portal to all federal, state and local government web resources and services.